SCP
0 0 0 0 0 0 0 0 0 0 0 -0 0 0 0 0 0 -0 -0 0 0 -0 0 0 0 0 0 0 0 0 0 1 1 -0 1 1 1 1 1 0 0 0 0 0
0 0 0 0 0 0 0 0 0 0 -0 -0 0 0 0 0 -0 -0 -0 -0 -0 -0 -0 -0 0 0 0 0 0 0 0 1 1 1 0 1 0 0 0 0 0 0 0 0
0 0 0 0 0 0 0 0 0 0 -0 0 0 -0 -0 -0 -0 -0 -0 -0 -0 -0 -0 0 0 0 0 0 1 0 0 0 0 0 0 0 0 0 0 0 0 0 0 0
0 0 0 0 0 0 0 0 0 0 -0 -0 0 0 0 0 -0 -0 -0 -0 -0 -0 -0 -0 0 0 0 0 0 0 0 0 0 0 0 0 0 0 0 0 0 0 0 0
0 0 0 0 0 0 0 0 -0 0 0 0 0 0 1 0 0 0 0 -0 -0 -0 -0 -0 0 0 0 0 0 0 0 0 0 -0 0 0 -0 -0 0 0 0 0 0 0
0 0 -0 0 0 0 0 0 -0 0 0 0 -0 0 0 0 0 0 0 0 -0 -0 -0 -0 0 0 0 0 -0 -0 -0 -0 -0 -0 -0 -0 -0 -0 0 0 0 0 0 0
0 0 0 0 0 0 0 0 0 0 0 0 -0 1 1 1 -0 0 0 0 -0 -0 -0 -0 -0 -0 -0 -0 -0 0 -0 -0 -0 -0 -0 -0 -0 -0 -0 0 0 0 0 0
0 0 0 -0 -0 0 0 0 0 0 0 0 1 1 1 0 -0 -0 0 0 -0 -0 -0 -0 -0 -0 -0 -0 0 -0 0 0 -0 -0 -0 0 -0 -0 0 0 0 0 0 0
0 0 0 -0 0 0 0 0 0 0 0 0 0 0 0 0 0 0 0 0 -0 0 -0 -0 -0 -0 -0 -0 -0 0 -0 -0 -0 -0 -0 0 -0 0 0 0 0 0 0 0
0 -0 -0 0 -0 0 0 0 0 0 0 0 0 1 1 1 0 0 0 0 -0 0 -0 -0 0 0 0 -0 -0 -0 -0 -0 -0 -0 0 0 0 0 0 0 0 0 0 0
0 0 0 0 -0 0 0 0 0 0 0 0 0 0 1 1 0 0 0 0 -0 -0 0 -0 0 0 -0 -0 -0 -0 -0 -0 -0 -0 0 0 -0 0 0 0 0 0 0 0
-0 -0 0 0 0 0 0 0 0 0 0 0 0 0 0 0 0 0 -0 -0 0 0 0 -0 -0 0 -0 -0 -0 -0 -0 -0 -0 -0 -0 0 0 0 0 -0 0 -0 -0 -0
0 0 0 0 0 0 0 0 0 0 0 0 0 0 0 0 0 0 0 -0 -0 0 -0 -0 0 0 -0 -0 -0 -0 -0 -0 -0 -0 -0 0 0 0 0 0 0 0 0 0
0 0 0 0 0 0 0 0 0 0 0 0 0 0 0 0 0 -0 -0 0 -0 -0 -0 0 0 0 0 -0 -0 0 0 -0 -0 -0 -0 0 0 0 0 0 0 0 0 0
0 0 0 0 0 0 0 0 0 0 0 0 0 0 0 0 0 -0 0 -0 -0 -0 -0 -0 0 0 0 -0 0 0 -0 0 -0 -0 0 0 0 0 0 0 0 0 0 0
0 0 0 0 0 0 0 0 0 0 0 0 0 0 0 -0 -0 -0 -0 -0 -0 -0 -0 -0 0 0 0 0 0 0 -0 0 0 0 0 -0 0 0 0 0 0 0 0 0
0 0 0 0 0 -0 -0 -0 -0 0 0 0 0 0 0 0 0 0 0 -0 -0 -0 -0 0 0 0 0 0 0 0 0 0 0 0 0 -0 0 -0 -0 0 0 0 0 0
0 1 0 0 0 0 0 0 -0 -0 -0 0 0 0 0 0 -0 0 -0 -0 -0 -0 -0 0 0 0 0 0 0 0 0 0 0 0 0 0 -0 -0 -0 0 0 0 0 0
0 0 0 0 0 0 0 0 0 0 -0 -0 0 -0 0 0 0 0 -0 -0 -0 -0 0 0 0 0 0 0 0 0 0 0 0 0 0 0 0 -0 0 0 0 0 -0 0
0 0 0 0 0 0 0 0 0 0 0 0 0 0 0 0 0 0 0 -0 -0 -0 -0 0 0 0 -0 -0 -0 -0 0 0 0 0 0 0 0 0 0 0 0 0 0 0
0 0 0 0 0 0 0 0 1 0 0 0 0 0 0 0 0 0 0 0 0 0 -0 -0 0 0 0 0 -0 0 0 0 0 0 0 0 0 0 0 0 0 0 0 0
0 0 0 0 0 0 0 0 0 1 0 0 0 0 0 0 0 0 0 0 0 0 0 0 -0 0 0 -0 -0 0 0 0 0 0 0 0 0 0 0 0 0 0 0 0
0 0 0 0 0 0 0 0 0 0 1 0 0 0 0 0 0 0 0 -0 0 -0 -0 -0 0 -0 -0 0 0 0 0 0 0 0 0 0 0 0 0 0 0 0 0 0
0 0 0 0 0 0 1 1 0 0 1 0 0 1 1 1 0 0 0 0 0 0 0 0 0 -0 -0 0 0 0 0 0 0 0 0 0 0 0 0 0 0 0 0 0
0 0 0 0 1 1 1 1 1 1 1 1 1 1 1 1 1 0 0 0 0 0 0 0 0 0 0 0 0 0 0 0 0 0 0 0 0 0 0 0 0 0 0 0
0 0 0 0 1 1 1 1 1 1 1 1 1 1 1 1 1 1 0 0 0 0 0 0 0 0 0 0 0 0 0 0 0 0 0 0 0 0 0 0 0 0 0 0
0 1 1 1 1 1 1 1 1 1 0 0 0 0 1 1 1 0 0 0 0 0 0 0 0 0 0 0 0 0 0 0 0 0 0 0 0 0 0 0 0 0 0 0
Wind_Speed_500mb
25 10 7 7 12 21 23 18 15 15 10 12 22 22 26 28 28 32 30 22 22 24 17 11 10 8 9 12 14 15 18 21 24 48 29 19 25 19 18 21 37 34 25 20
17 13 14 14 9 18 24 18 25 31 40 21 22 23 33 35 35 38 36 29 27 22 18 15 9 7 9 9 7 8 6 9 11 12 11 14 12 13 12 19 10 3 4 5
11 8 9 11 27 30 21 16 17 22 15 20 21 36 45 43 41 43 41 36 31 25 18 10 7 5 3 5 8 6 9 17 20 18 15 12 11 7 7 15 13 11 13 13
4 10 13 8 3 14 29 31 25 26 7 29 36 39 38 43 50 46 46 39 31 24 19 19 19 18 17 13 10 10 15 22 26 26 24 22 20 22 25 23 20 19 17 14
9 15 6 9 12 14 18 26 28 30 12 27 36 37 20 33 42 47 45 41 34 27 24 23 22 22 19 17 16 18 22 26 26 23 26 29 31 32 30 28 24 19 16 13
5 18 25 19 10 17 12 23 24 32 32 46 49 25 20 44 46 45 44 41 40 35 32 26 25 25 23 23 22 26 29 31 31 32 32 34 33 32 30 25 22 19 16 17
15 11 9 16 17 20 12 7 31 39 52 56 36 16 51 54 52 48 47 45 43 36 32 28 28 28 25 28 30 32 32 33 35 36 35 34 34 32 27 24 23 20 19 21
8 13 19 21 22 16 8 13 29 36 51 50 22 35 73 65 59 59 56 51 42 39 32 27 28 29 30 30 31 29 30 37 36 33 33 32 28 23 17 15 17 20 17 20
17 15 6 42 11 21 14 11 19 39 44 44 37 54 72 74 71 66 59 52 45 39 36 30 29 27 31 31 30 29 34 35 32 31 29 25 19 16 13 13 13 15 13 16
4 20 19 19 33 24 17 7 12 21 41 45 43 52 66 70 74 71 63 58 50 42 36 33 30 29 24 27 28 27 33 32 28 25 23 18 14 13 13 14 9 9 10 8
11 17 8 22 41 33 29 13 17 26 35 49 55 60 68 70 72 70 67 57 50 43 36 31 27 24 24 24 25 26 30 29 28 22 17 14 9 6 9 14 14 7 6 6
16 23 17 18 43 49 39 20 24 34 37 45 57 65 71 80 77 66 69 59 53 45 38 31 25 21 25 26 25 25 29 30 26 19 12 8 1 0 5 9 12 9 4 5
9 15 26 21 26 47 38 30 32 32 32 45 52 54 64 85 81 63 67 62 53 47 41 31 28 25 25 22 22 23 26 29 22 16 13 10 6 8 3 6 8 8 9 4
25 22 10 23 25 49 30 33 33 29 28 37 43 49 58 75 82 66 62 57 52 44 40 31 29 24 25 22 20 19 24 29 21 18 18 10 11 5 0 8 5 2 4 8
22 35 5 21 43 44 40 41 37 32 34 37 38 47 58 78 77 67 61 57 51 46 39 30 30 26 25 24 20 17 22 31 26 20 16 15 13 10 9 4 6 2 1 4
18 22 23 32 51 49 45 37 31 35 36 37 49 52 62 73 72 62 56 53 54 50 43 32 29 26 23 25 25 22 19 20 22 23 22 19 17 10 2 4 1 1 4 5
15 11 23 33 50 57 50 34 26 30 38 45 51 52 52 51 48 51 48 45 52 46 37 27 28 30 24 24 23 21 25 17 14 17 23 21 19 14 8 7 10 10 9 8
21 12 16 47 70 61 52 43 34 28 33 47 50 52 49 51 53 54 51 47 49 44 32 28 28 29 27 23 20 15 24 22 15 15 13 15 22 22 16 8 8 8 12 14
26 21 13 24 61 63 59 52 46 40 42 46 50 52 52 44 45 51 51 53 54 43 38 35 30 26 23 20 18 17 19 25 21 16 13 8 10 14 18 19 15 15 17 19
29 30 24 23 43 61 60 56 53 46 44 44 44 42 40 35 40 48 57 63 50 33 42 37 31 27 24 19 15 10 12 20 23 22 19 14 9 10 12 14 15 14 13 18
31 34 37 34 39 60 55 54 56 53 49 43 39 37 35 33 46 61 64 55 39 39 40 34 27 25 26 20 16 11 6 3 14 24 27 24 19 15 14 14 13 12 13 11
38 43 44 43 42 54 56 44 47 56 54 48 40 38 42 40 46 54 46 43 43 42 36 32 28 25 21 17 14 11 8 5 5 9 18 27 29 26 22 23 19 16 17 16
48 46 47 49 48 49 50 46 44 55 57 52 47 45 49 49 49 54 51 48 44 41 35 31 27 24 22 19 17 14 12 12 12 10 11 17 20 23 22 19 22 23 22 22
56 51 48 49 52 52 50 50 51 51 53 56 51 48 53 58 52 48 46 44 41 35 32 30 28 25 23 24 22 20 20 20 18 19 17 16 19 20 21 23 24 24 25 25
59 56 48 55 56 57 58 58 55 52 48 49 49 46 50 58 56 51 46 47 43 38 35 31 28 25 20 21 24 24 25 28 29 27 26 25 22 23 23 23 23 22 22 24
47 57 52 57 66 68 65 60 57 52 47 46 45 50 52 53 53 50 48 41 36 33 30 27 24 22 21 21 22 23 24 25 24 32 34 34 34 33 31 29 24 26 27 25
37 48 51 62 64 64 64 60 54 49 46 47 51 48 48 49 47 43 39 35 31 27 24 22 20 19 18 19 22 25 28 28 27 28 33 40 43 43 44 41 39 33 32 31
Wind_Direction_500mb
227 230 231 267 216 190 213 231 230 285 245 221 195 171 150 137 141 154 156 151 159 172 182 194 205 247 276 292 307 274 255 237 219 245 251 237 228 209 280 308 310 307 292 286
234 191 214 236 220 222 224 222 246 262 274 214 174 158 147 146 149 153 153 159 158 163 170 175 180 219 244 251 281 315 264 224 206 207 202 213 242 241 274 279 276 325 59 32
234 170 171 240 236 218 228 218 245 245 267 159 168 177 162 155 156 153 153 154 151 160 167 176 202 209 167 154 121 100 92 106 114 124 131 144 129 112 76 89 106 98 85 73
250 156 219 246 286 238 233 256 238 255 223 195 177 171 163 161 158 157 153 151 150 150 142 136 128 119 108 100 107 110 105 104 107 116 115 111 106 108 112 110 100 87 73 62
217 216 291 234 212 207 202 266 224 227 198 174 156 139 137 165 163 158 154 151 146 148 144 133 131 123 113 111 111 117 118 118 116 118 117 118 120 118 109 103 94 76 68 46
182 232 241 241 184 171 165 276 182 181 175 165 161 170 166 167 159 153 151 144 142 142 130 129 128 120 119 115 115 117 115 114 115 115 115 117 112 107 102 94 84 76 70 62
212 246 252 254 154 166 213 290 173 182 179 176 183 186 158 157 154 154 147 148 141 138 126 130 133 130 129 122 123 119 118 121 119 117 118 112 112 110 100 84 71 68 72 66
184 217 243 152 144 204 205 149 178 187 188 187 168 157 158 157 157 153 148 150 147 142 136 132 130 129 129 130 130 124 124 126 125 124 118 116 111 103 98 87 73 63 75 74
222 211 153 191 239 197 174 157 187 191 188 182 159 159 159 161 160 157 149 150 152 147 144 142 136 137 137 135 135 133 135 133 131 127 124 121 110 93 81 84 68 57 72 77
187 223 217 211 231 212 208 157 179 197 188 179 169 168 165 164 162 162 160 161 156 153 150 151 147 143 146 144 143 142 146 149 146 139 132 130 116 76 57 42 39 54 60 111
230 268 292 240 225 203 178 142 148 160 182 184 186 175 172 168 166 168 167 169 167 165 158 156 152 151 159 158 156 157 161 166 160 153 138 129 125 79 49 28 33 50 58 153
221 227 228 232 213 198 195 177 166 160 167 185 192 183 179 174 170 171 175 179 180 177 172 162 158 161 167 167 169 168 169 172 174 173 170 172 94 360 62 28 24 37 42 162
226 268 215 254 182 175 160 159 167 166 170 182 190 189 179 174 171 171 176 184 184 184 180 172 171 169 169 173 177 181 187 188 186 189 174 165 159 147 87 357 8 18 24 158
226 186 199 175 174 180 183 164 164 162 175 196 196 191 180 176 178 182 181 181 184 184 180 179 178 177 178 172 172 187 194 190 186 177 183 175 163 175 285 322 338 356 42 72
212 193 56 158 149 153 163 160 160 169 177 183 187 190 185 181 183 185 187 186 183 181 180 186 186 189 192 193 189 202 202 199 197 196 199 209 190 222 272 269 14 143 261 314
169 187 194 169 158 152 157 158 164 172 178 179 178 179 178 182 191 194 194 187 181 181 185 190 189 193 186 191 186 191 189 190 203 214 214 206 195 205 349 200 204 287 273 296
139 146 179 172 172 163 167 161 169 169 175 174 169 170 177 187 191 191 190 193 188 180 175 184 187 185 184 181 184 206 212 207 186 189 194 200 207 223 253 257 251 274 279 292
248 272 260 198 180 175 173 169 167 160 165 166 164 164 173 182 188 191 192 192 176 172 169 177 183 187 193 194 198 210 199 189 175 178 188 208 226 236 240 253 292 283 267 282
254 246 242 218 196 183 180 175 173 163 159 165 174 180 187 195 197 192 189 176 171 170 172 175 172 178 185 192 204 208 205 201 195 193 201 218 216 221 237 249 270 286 281 285
247 243 240 229 209 199 190 185 179 176 169 166 168 173 176 178 186 184 174 172 174 177 175 175 175 173 171 166 161 168 197 208 211 219 225 230 239 264 260 249 278 294 268 273
243 237 235 232 218 208 203 197 190 186 182 179 179 172 167 164 162 166 168 171 172 171 176 175 176 183 190 190 193 191 185 209 229 233 234 233 239 246 256 258 277 273 278 271
236 233 229 224 214 199 201 202 202 196 195 192 188 179 170 172 167 169 171 168 172 176 179 182 186 186 185 191 207 217 232 266 315 264 240 234 239 248 269 262 259 274 258 268
226 223 221 217 213 207 206 206 205 198 197 200 200 194 181 177 174 178 183 179 174 175 181 189 192 197 205 212 222 234 251 270 283 292 273 241 242 242 262 249 260 268 261 265
222 213 210 207 206 206 203 198 192 191 193 196 198 197 186 179 183 183 181 179 181 184 193 205 213 219 229 236 242 249 254 261 268 273 275 255 244 247 255 263 269 271 263 260
216 209 203 202 200 194 190 185 182 183 185 192 200 198 189 188 185 182 184 185 191 202 214 221 227 236 244 237 239 249 262 267 262 259 256 256 258 258 260 264 261 255 257 259
198 201 200 199 194 187 184 182 180 179 184 189 190 187 186 188 191 196 197 202 208 214 221 226 227 226 236 246 248 258 274 283 282 251 246 248 248 252 258 260 267 262 255 263
184 188 184 183 184 177 177 178 181 174 178 181 174 171 175 177 181 184 186 189 192 191 191 190 198 217 236 254 266 275 281 284 283 276 263 253 251 250 250 253 256 262 256 253
Wind_Speed_850mb
25 10 7 7 12 21 23 18 15 15 10 12 22 22 26 28 28 32 30 22 22 24 17 11 10 8 9 12 14 15 18 21 24 48 29 19 25 19 18 21 37 34 25 20
17 13 14 14 9 18 24 18 25 31 40 21 22 23 33 35 35 38 36 29 27 22 18 15 9 7 9 9 7 8 6 9 11 12 11 14 12 13 12 19 10 3 4 5
11 8 9 11 27 30 21 16 17 22 15 20 21 36 45 43 41 43 41 36 31 25 18 10 7 5 3 5 8 6 9 17 20 18 15 12 11 7 7 15 13 11 13 13
4 10 13 8 3 14 29 31 25 26 7 29 36 39 38 43 50 46 46 39 31 24 19 19 19 18 17 13 10 10 15 22 26 26 24 22 20 22 25 23 20 19 17 14
9 15 6 9 12 14 18 26 28 30 12 27 36 37 20 33 42 47 45 41 34 27 24 23 22 22 19 17 16 18 22 26 26 23 26 29 31 32 30 28 24 19 16 13
5 18 25 19 10 17 12 23 24 32 32 46 49 25 20 44 46 45 44 41 40 35 32 26 25 25 23 23 22 26 29 31 31 32 32 34 33 32 30 25 22 19 16 17
15 11 9 16 17 20 12 7 31 39 52 56 36 16 51 54 52 48 47 45 43 36 32 28 28 28 25 28 30 32 32 33 35 36 35 34 34 32 27 24 23 20 19 21
8 13 19 21 22 16 8 13 29 36 51 50 22 35 73 65 59 59 56 51 42 39 32 27 28 29 30 30 31 29 30 37 36 33 33 32 28 23 17 15 17 20 17 20
17 15 6 42 11 21 14 11 19 39 44 44 37 54 72 74 71 66 59 52 45 39 36 30 29 27 31 31 30 29 34 35 32 31 29 25 19 16 13 13 13 15 13 16
4 20 19 19 33 24 17 7 12 21 41 45 43 52 66 70 74 71 63 58 50 42 36 33 30 29 24 27 28 27 33 32 28 25 23 18 14 13 13 14 9 9 10 8
11 17 8 22 41 33 29 13 17 26 35 49 55 60 68 70 72 70 67 57 50 43 36 31 27 24 24 24 25 26 30 29 28 22 17 14 9 6 9 14 14 7 6 6
16 23 17 18 43 49 39 20 24 34 37 45 57 65 71 80 77 66 69 59 53 45 38 31 25 21 25 26 25 25 29 30 26 19 12 8 1 0 5 9 12 9 4 5
9 15 26 21 26 47 38 30 32 32 32 45 52 54 64 85 81 63 67 62 53 47 41 31 28 25 25 22 22 23 26 29 22 16 13 10 6 8 3 6 8 8 9 4
25 22 10 23 25 49 30 33 33 29 28 37 43 49 58 75 82 66 62 57 52 44 40 31 29 24 25 22 20 19 24 29 21 18 18 10 11 5 0 8 5 2 4 8
22 35 5 21 43 44 40 41 37 32 34 37 38 47 58 78 77 67 61 57 51 46 39 30 30 26 25 24 20 17 22 31 26 20 16 15 13 10 9 4 6 2 1 4
18 22 23 32 51 49 45 37 31 35 36 37 49 52 62 73 72 62 56 53 54 50 43 32 29 26 23 25 25 22 19 20 22 23 22 19 17 10 2 4 1 1 4 5
15 11 23 33 50 57 50 34 26 30 38 45 51 52 52 51 48 51 48 45 52 46 37 27 28 30 24 24 23 21 25 17 14 17 23 21 19 14 8 7 10 10 9 8
21 12 16 47 70 61 52 43 34 28 33 47 50 52 49 51 53 54 51 47 49 44 32 28 28 29 27 23 20 15 24 22 15 15 13 15 22 22 16 8 8 8 12 14
26 21 13 24 61 63 59 52 46 40 42 46 50 52 52 44 45 51 51 53 54 43 38 35 30 26 23 20 18 17 19 25 21 16 13 8 10 14 18 19 15 15 17 19
29 30 24 23 43 61 60 56 53 46 44 44 44 42 40 35 40 48 57 63 50 33 42 37 31 27 24 19 15 10 12 20 23 22 19 14 9 10 12 14 15 14 13 18
31 34 37 34 39 60 55 54 56 53 49 43 39 37 35 33 46 61 64 55 39 39 40 34 27 25 26 20 16 11 6 3 14 24 27 24 19 15 14 14 13 12 13 11
38 43 44 43 42 54 56 44 47 56 54 48 40 38 42 40 46 54 46 43 43 42 36 32 28 25 21 17 14 11 8 5 5 9 18 27 29 26 22 23 19 16 17 16
48 46 47 49 48 49 50 46 44 55 57 52 47 45 49 49 49 54 51 48 44 41 35 31 27 24 22 19 17 14 12 12 12 10 11 17 20 23 22 19 22 23 22 22
56 51 48 49 52 52 50 50 51 51 53 56 51 48 53 58 52 48 46 44 41 35 32 30 28 25 23 24 22 20 20 20 18 19 17 16 19 20 21 23 24 24 25 25
59 56 48 55 56 57 58 58 55 52 48 49 49 46 50 58 56 51 46 47 43 38 35 31 28 25 20 21 24 24 25 28 29 27 26 25 22 23 23 23 23 22 22 24
47 57 52 57 66 68 65 60 57 52 47 46 45 50 52 53 53 50 48 41 36 33 30 27 24 22 21 21 22 23 24 25 24 32 34 34 34 33 31 29 24 26 27 25
37 48 51 62 64 64 64 60 54 49 46 47 51 48 48 49 47 43 39 35 31 27 24 22 20 19 18 19 22 25 28 28 27 28 33 40 43 43 44 41 39 33 32 31
Wind_Direction_850mb
227 230 231 267 216 190 213 231 230 285 245 221 195 171 150 137 141 154 156 151 159 172 182 194 205 247 276 292 307 274 255 237 219 245 251 237 228 209 280 308 310 307 292 286
234 191 214 236 220 222 224 222 246 262 274 214 174 158 147 146 149 153 153 159 158 163 170 175 180 219 244 251 281 315 264 224 206 207 202 213 242 241 274 279 276 325 59 32
234 170 171 240 236 218 228 218 245 245 267 159 168 177 162 155 156 153 153 154 151 160 167 176 202 209 167 154 121 100 92 106 114 124 131 144 129 112 76 89 106 98 85 73
250 156 219 246 286 238 233 256 238 255 223 195 177 171 163 161 158 157 153 151 150 150 142 136 128 119 108 100 107 110 105 104 107 116 115 111 106 108 112 110 100 87 73 62
217 216 291 234 212 207 202 266 224 227 198 174 156 139 137 165 163 158 154 151 146 148 144 133 131 123 113 111 111 117 118 118 116 118 117 118 120 118 109 103 94 76 68 46
182 232 241 241 184 171 165 276 182 181 175 165 161 170 166 167 159 153 151 144 142 142 130 129 128 120 119 115 115 117 115 114 115 115 115 117 112 107 102 94 84 76 70 62
212 246 252 254 154 166 213 290 173 182 179 176 183 186 158 157 154 154 147 148 141 138 126 130 133 130 129 122 123 119 118 121 119 117 118 112 112 110 100 84 71 68 72 66
184 217 243 152 144 204 205 149 178 187 188 187 168 157 158 157 157 153 148 150 147 142 136 132 130 129 129 130 130 124 124 126 125 124 118 116 111 103 98 87 73 63 75 74
222 211 153 191 239 197 174 157 187 191 188 182 159 159 159 161 160 157 149 150 152 147 144 142 136 137 137 135 135 133 135 133 131 127 124 121 110 93 81 84 68 57 72 77
187 223 217 211 231 212 208 157 179 197 188 179 169 168 165 164 162 162 160 161 156 153 150 151 147 143 146 144 143 142 146 149 146 139 132 130 116 76 57 42 39 54 60 111
230 268 292 240 225 203 178 142 148 160 182 184 186 175 172 168 166 168 167 169 167 165 158 156 152 151 159 158 156 157 161 166 160 153 138 129 125 79 49 28 33 50 58 153
221 227 228 232 213 198 195 177 166 160 167 185 192 183 179 174 170 171 175 179 180 177 172 162 158 161 167 167 169 168 169 172 174 173 170 172 94 360 62 28 24 37 42 162
226 268 215 254 182 175 160 159 167 166 170 182 190 189 179 174 171 171 176 184 184 184 180 172 171 169 169 173 177 181 187 188 186 189 174 165 159 147 87 357 8 18 24 158
226 186 199 175 174 180 183 164 164 162 175 196 196 191 180 176 178 182 181 181 184 184 180 179 178 177 178 172 172 187 194 190 186 177 183 175 163 175 285 322 338 356 42 72
212 193 56 158 149 153 163 160 160 169 177 183 187 190 185 181 183 185 187 186 183 181 180 186 186 189 192 193 189 202 202 199 197 196 199 209 190 222 272 269 14 143 261 314
169 187 194 169 158 152 157 158 164 172 178 179 178 179 178 182 191 194 194 187 181 181 185 190 189 193 186 191 186 191 189 190 203 214 214 206 195 205 349 200 204 287 273 296
139 146 179 172 172 163 167 161 169 169 175 174 169 170 177 187 191 191 190 193 188 180 175 184 187 185 184 181 184 206 212 207 186 189 194 200 207 223 253 257 251 274 279 292
248 272 260 198 180 175 173 169 167 160 165 166 164 164 173 182 188 191 192 192 176 172 169 177 183 187 193 194 198 210 199 189 175 178 188 208 226 236 240 253 292 283 267 282
254 246 242 218 196 183 180 175 173 163 159 165 174 180 187 195 197 192 189 176 171 170 172 175 172 178 185 192 204 208 205 201 195 193 201 218 216 221 237 249 270 286 281 285
247 243 240 229 209 199 190 185 179 176 169 166 168 173 176 178 186 184 174 172 174 177 175 175 175 173 171 166 161 168 197 208 211 219 225 230 239 264 260 249 278 294 268 273
243 237 235 232 218 208 203 197 190 186 182 179 179 172 167 164 162 166 168 171 172 171 176 175 176 183 190 190 193 191 185 209 229 233 234 233 239 246 256 258 277 273 278 271
236 233 229 224 214 199 201 202 202 196 195 192 188 179 170 172 167 169 171 168 172 176 179 182 186 186 185 191 207 217 232 266 315 264 240 234 239 248 269 262 259 274 258 268
226 223 221 217 213 207 206 206 205 198 197 200 200 194 181 177 174 178 183 179 174 175 181 189 192 197 205 212 222 234 251 270 283 292 273 241 242 242 262 249 260 268 261 265
222 213 210 207 206 206 203 198 192 191 193 196 198 197 186 179 183 183 181 179 181 184 193 205 213 219 229 236 242 249 254 261 268 273 275 255 244 247 255 263 269 271 263 260
216 209 203 202 200 194 190 185 182 183 185 192 200 198 189 188 185 182 184 185 191 202 214 221 227 236 244 237 239 249 262 267 262 259 256 256 258 258 260 264 261 255 257 259
198 201 200 199 194 187 184 182 180 179 184 189 190 187 186 188 191 196 197 202 208 214 221 226 227 226 236 246 248 258 274 283 282 251 246 248 248 252 258 260 267 262 255 263
184 188 184 183 184 177 177 178 181 174 178 181 174 171 175 177 181 184 186 189 192 191 191 190 198 217 236 254 266 275 281 284 283 276 263 253 251 250 250 253 256 262 256 253